Mojave, CA

11:46 PM PST on December 15, 2019 (GMT -0800)
Mojave

Weather History for KMHV - October, 2019

Change the Weather History Date:

Wednesday, October 30, 2019

  Actual Average Record
Temperature  
Mean Temperature 42 °F -  
Max Temperature 53 °F 69 °F 84 °F (1990)
Min Temperature 30 °F 43 °F 22 °F (1971)
Degree Days  
Heating Degree Days 24    
Moisture  
Dew Point -12 °F    
Average Humidity 10    
Maximum Humidity 15    
Minimum Humidity 6    
Precipitation  
Precipitation 0.00 in - - ()
Sea Level Pressure  
Sea Level Pressure 30.30 in    
Wind  
Wind Speed 9 mph ()    
Max Wind Speed 20 mph    
Max Gust Speed 25 mph    
Visibility 9.9 miles    
Events      
Averages and records for this station are not official NWS values.
T = Trace of Precipitation, MM = Missing Value Source: Averaged Metar Reports

Daily Weather History Graph

Daily Weather History Graph

Search for Another Location

Airport or City:

Astronomy

Oct. 30, 2019 Rise Set
Actual Time 7:11 AM PDT 6:00 PM PDT
Civil Twilight 6:45 AM PDT 6:26 PM PDT
Nautical Twilight 6:15 AM PDT 6:56 PM PDT
Astronomical Twilight 5:46 AM PDT 7:25 PM PDT
Moon 9:55 AM PDT (10/30) 8:17 PM PDT (10/30)
Length of Visible Light 11h 40m
Length of Day
10h 48m
Waxing Crescent, 9% of the Moon is Illuminated
Oct 30
Waxing Crescent
Nov 4
First Quarter
Nov 12
Full
Nov 19
Last Quarter
Nov 26
New

Hourly Weather History & Observations

Time (PDT) Temp. Windchill Dew Point Humidity Pressure Visibility Wind Dir Wind Speed Gust Speed Precip Events Conditions
12:00 AM 46.4 °F 42.4 °F -2.2 °F 13% 30.10 in 10.0 mi ENE 8.1 mph - N/A   Overcast
12:20 AM 44.6 °F 40.2 °F -4.0 °F 13% 30.11 in 10.0 mi NE 8.1 mph - N/A   Overcast
12:40 AM 46.4 °F 41.5 °F -4.0 °F 12% 30.12 in 10.0 mi NNE 10.4 mph - N/A   Overcast
1:00 AM 46.4 °F 40.4 °F -4.0 °F 12% 30.12 in 10.0 mi NNE 13.8 mph - N/A   Overcast
1:20 AM 46.4 °F 41.1 °F -5.8 °F 11% 30.14 in 10.0 mi NE 11.5 mph - N/A   Mostly Cloudy
1:40 AM 44.6 °F 40.2 °F -4.0 °F 13% 30.15 in 10.0 mi ENE 8.1 mph - N/A   Overcast
2:00 AM 44.6 °F 38.1 °F -2.2 °F 14% 30.16 in 10.0 mi ENE 13.8 mph - N/A   Overcast
2:20 AM 44.6 °F 38.4 °F -2.2 °F 14% 30.17 in 10.0 mi ENE 12.7 mph 18.4 mph N/A   Mostly Cloudy
2:40 AM 42.8 °F 36.6 °F -4.0 °F 14% 30.18 in 10.0 mi ENE 11.5 mph - N/A   Overcast
3:00 AM 41.0 °F 35.8 °F -4.0 °F 15% 30.19 in 10.0 mi NE 8.1 mph - N/A   Overcast
3:20 AM 41.0 °F 36.4 °F -5.8 °F 14% 30.20 in 10.0 mi NE 6.9 mph - N/A   Overcast
3:40 AM 39.2 °F 35.9 °F -5.8 °F 15% 30.21 in 10.0 mi NE 4.6 mph - N/A   Overcast
4:00 AM 37.4 °F 31.4 °F -7.6 °F 15% 30.22 in 10.0 mi NE 8.1 mph - N/A   Mostly Cloudy
4:20 AM 37.4 °F 32.1 °F -9.4 °F 13% 30.23 in 10.0 mi NE 6.9 mph - N/A   Mostly Cloudy
4:40 AM 37.4 °F 32.8 °F -11.2 °F 12% 30.23 in 10.0 mi NNE 5.8 mph - N/A   Scattered Clouds
5:00 AM 37.4 °F 31.4 °F -11.2 °F 12% 30.24 in 10.0 mi NNE 8.1 mph - N/A   Mostly Cloudy
5:20 AM 37.4 °F 30.3 °F -11.2 °F 12% 30.25 in 10.0 mi NNE 10.4 mph - N/A   Overcast
5:40 AM 37.4 °F 32.8 °F -13.0 °F 11% 30.26 in 10.0 mi NE 5.8 mph - N/A   Overcast
6:00 AM 35.6 °F 30.7 °F -13.0 °F 12% 30.27 in 10.0 mi NNE 5.8 mph - N/A   Overcast
6:20 AM 35.6 °F 30.7 °F -14.8 °F 11% 30.28 in 6.0 mi NE 5.8 mph - N/A   Haze
6:40 AM 33.8 °F 28.6 °F -14.8 °F 12% 30.29 in 9.0 mi NE 5.8 mph - N/A   Mostly Cloudy
7:00 AM 33.8 °F 28.6 °F -16.6 °F 11% 30.30 in 10.0 mi NE 5.8 mph - N/A   Scattered Clouds
7:20 AM - - - N/A% - - North - - N/A   Unknown
7:40 AM 33.8 °F 28.6 °F -16.6 °F 11% 30.32 in 10.0 mi NE 5.8 mph - N/A   Unknown
8:00 AM 37.4 °F 32.8 °F -16.6 °F 9% 30.33 in 10.0 mi NE 5.8 mph - N/A   Clear
8:20 AM 39.2 °F 33.6 °F -14.8 °F 10% 30.34 in 10.0 mi NNE 8.1 mph - N/A   Clear
8:40 AM 41.0 °F 35.8 °F -14.8 °F 9% 30.35 in 10.0 mi NE 8.1 mph - N/A   Clear
9:20 AM 41.0 °F 35.2 °F -14.8 °F 9% 30.36 in 10.0 mi East 9.2 mph - N/A   Clear
9:40 AM 42.8 °F 38.6 °F -13.0 °F 9% 30.38 in 10.0 mi East 6.9 mph 12.7 mph N/A   Clear
10:00 AM 42.8 °F 37.5 °F -13.0 °F 9% 30.38 in 10.0 mi East 9.2 mph 16.1 mph N/A   Clear
10:20 AM 44.6 °F 38.8 °F -13.0 °F 9% 30.38 in 10.0 mi East 11.5 mph 19.6 mph N/A   Clear
10:40 AM 44.6 °F 37.8 °F -13.0 °F 9% 30.38 in 10.0 mi East 15.0 mph 20.7 mph N/A   Clear
11:00 AM 46.4 °F 40.1 °F -13.0 °F 8% 30.38 in 10.0 mi East 15.0 mph - N/A   Clear
11:20 AM 46.4 °F 39.5 °F -13.0 °F 8% 30.37 in 10.0 mi East 17.3 mph 24.2 mph N/A   Clear
11:40 AM 48.2 °F - -13.0 °F 7% 30.37 in 10.0 mi ENE 12.7 mph 21.9 mph N/A   Clear
12:00 PM 48.2 °F - -13.0 °F 7% 30.36 in 10.0 mi East 19.6 mph - N/A   Clear
12:20 PM 50.0 °F - -13.0 °F 7% 30.35 in 10.0 mi East 17.3 mph 23.0 mph N/A   Clear
12:40 PM 50.0 °F - -13.0 °F 7% 30.35 in 10.0 mi ENE 18.4 mph 24.2 mph N/A   Clear
1:00 PM 51.8 °F - -13.0 °F 7% 30.34 in 10.0 mi ENE 16.1 mph 25.3 mph N/A   Clear
1:20 PM 51.8 °F - -13.0 °F 7% 30.33 in 10.0 mi East 15.0 mph 25.3 mph N/A   Clear
1:40 PM 51.8 °F - -13.0 °F 7% 30.32 in 10.0 mi East 12.7 mph 24.2 mph N/A   Clear
2:00 PM 51.8 °F - -13.0 °F 7% 30.32 in 10.0 mi East 13.8 mph 21.9 mph N/A   Clear
2:20 PM 51.8 °F - -13.0 °F 7% 30.32 in 10.0 mi East 15.0 mph 23.0 mph N/A   Clear
2:40 PM 51.8 °F - -13.0 °F 7% 30.31 in 10.0 mi ENE 17.3 mph - N/A   Clear
3:00 PM 51.8 °F - -13.0 °F 7% 30.30 in 10.0 mi East 17.3 mph 23.0 mph N/A   Clear
3:20 PM 53.6 °F - -13.0 °F 6% 30.31 in 10.0 mi ENE 16.1 mph - N/A   Clear
3:40 PM 53.6 °F - -13.0 °F 6% 30.31 in 10.0 mi ENE 16.1 mph 23.0 mph N/A   Clear
4:00 PM 51.8 °F - -14.8 °F 6% 30.31 in 10.0 mi ENE 18.4 mph - N/A   Clear
4:20 PM 51.8 °F - -13.0 °F 7% 30.31 in 10.0 mi ENE 15.0 mph 20.7 mph N/A   Clear
4:40 PM 51.8 °F - -13.0 °F 7% 30.31 in 10.0 mi ENE 15.0 mph - N/A   Clear
5:00 PM 51.8 °F - -13.0 °F 7% 30.31 in 10.0 mi East 12.7 mph - N/A   Clear
5:20 PM 51.8 °F - -13.0 °F 7% 30.32 in 10.0 mi East 13.8 mph - N/A   Clear
5:40 PM 50.0 °F - -14.8 °F 6% 30.32 in 10.0 mi East 15.0 mph - N/A   Clear
6:00 PM 48.2 °F - -13.0 °F 7% 30.32 in 10.0 mi East 11.5 mph - N/A   Clear
6:20 PM 48.2 °F - -13.0 °F 7% 30.33 in 10.0 mi ENE 6.9 mph - N/A   Clear
6:40 PM 44.6 °F 40.7 °F -13.0 °F 9% 30.33 in 10.0 mi NE 6.9 mph - N/A   Clear
7:00 PM 42.8 °F 39.3 °F -14.8 °F 8% 30.34 in 10.0 mi NNE 5.8 mph - N/A   Partly Cloudy
7:20 PM 42.8 °F 38.6 °F -14.8 °F 8% 30.34 in 10.0 mi NNE 6.9 mph - N/A   Scattered Clouds
7:40 PM 44.6 °F 39.7 °F -14.8 °F 8% 30.34 in 10.0 mi NE 9.2 mph - N/A   Scattered Clouds
8:00 PM 42.8 °F 37.5 °F -14.8 °F 8% 30.34 in 10.0 mi North 9.2 mph - N/A   Partly Cloudy
8:20 PM 41.0 °F 34.7 °F -14.8 °F 9% 30.34 in 10.0 mi NNE 10.4 mph - N/A   Partly Cloudy
8:40 PM 39.2 °F 35.0 °F -14.8 °F 10% 30.35 in 10.0 mi NNE 5.8 mph - N/A   Partly Cloudy
9:00 PM 39.2 °F 35.0 °F -14.8 °F 10% 30.35 in 10.0 mi NNE 5.8 mph - N/A   Partly Cloudy
9:40 PM 37.4 °F 32.1 °F -14.8 °F 10% 30.36 in 10.0 mi NNE 6.9 mph - N/A   Partly Cloudy
10:00 PM 35.6 °F - -14.8 °F 11% 30.36 in 10.0 mi Calm Calm - N/A   Partly Cloudy
10:20 PM 32.0 °F 25.6 °F -16.6 °F 12% 30.36 in 10.0 mi North 6.9 mph - N/A   Partly Cloudy
10:40 PM 32.0 °F 27.5 °F -16.6 °F 12% 30.36 in 9.0 mi North 4.6 mph - N/A   Partly Cloudy
11:00 PM - - - N/A% - - North - - N/A   Unknown
11:20 PM 30.2 °F 24.3 °F -16.6 °F 13% 30.36 in 10.0 mi NNW 5.8 mph - N/A   Unknown
11:40 PM 30.2 °F 25.4 °F -16.6 °F 13% 30.36 in 10.0 mi North 4.6 mph - N/A   Partly Cloudy